sat.trackr.live / text

‹ back to catalog

STARLINK-11242 [DTC]

NORAD 60903 · 2024-154A

PAYLOAD ACTIVE UNKNOWN

§ Identity

Operator
Country
US
Launch date
2024-08-31
Launch site
AFETR
Launch vehicle
Mass (kg)
RCS (m²)

Purposes: comms

External: N2YO · Heavens-Above · Gunter

§ Orbital elements

Epoch: 2026-09-21T22:55:30.645120Z

Period
91.74 min
Inclination
53.1600°
Eccentricity
0.0001080
Mean motion
15.69708278 rev/d
Perigee alt
359.0 km
Apogee alt
360.5 km
Semi-major
6,737.9 km
B*
-2.0722e-6
RAAN
243.4883°
Arg perigee
86.3345°
Mean anomaly
273.7797°
Rev number
11,934

§ Raw data

STARLINK-11242 [DTC]1 60903U 24154A   26264.95521580 -.00000840  00000+0 -20722-5 0  99902 60903  53.1600 243.4883 0001080  86.3345 273.7797 15.69708278119348

JSON: /api/v1/satellites/60903 · /tle

For live sub-satellite position, see the globe view (requires WebGL).

§ Visibility from observer

Set your observer location to see the next 7 days of passes ≥ 10°. The values pass through the URL so the page stays shareable.

No JS? Fill the form by hand. The geolocation button needs JavaScript.